Showing default

M-SEL, 63231

Orbit data source: Space-Track

M-SEL, 63231 is an American payload satellite in SSO that was launched on Sat, 15 Mar 2025 UTC via an FALCON 9 launch vehicle from the Air Force Western Test Range (AFWTR). Payload-class satellites include a variety of spacecraft equipped with specific instruments for various scientific and technological missions. These include communications satellites like Starlink; space stations such as the ISS; scientific satellites like the Hubble; Earth observation satellites from companies like Planet Labs, Umbra, and HawkEye 360; GPS; miniature CubeSats for education and research; and military/defense satellites.

Loading next visibility...
Identifier
63231, 2025-052X
Orbit
SSO
Country
Flag of USUS
Related business
Manufacturer
Astro Digital
Mission
Operational Commercial Technology
Bus & Motor
CORVUS-MICRO, Unknown motor
Mass
32 kg wet, 32 kg dry
Launch date (UTC)
2025-03-15 (1 year ago)
Launch vehicle
FALCON 9
Launch site
Air Force Western Test Range (AFWTR)
Object type
Payload
Rocket body
Debris
Shape & HBR
Box, 0.5 m
Radar Cross Section
0.400 m², Medium (>0.1 m² and < 1m²)

Expand to show TLE details & history
Last TLE update: 7 hours ago

TLE from 7 hours ago
0 M-SEL
1 63231U 25052X   26175.15120953  .00006972  00000-0  27185-3 0  9996
2 63231  97.3914  68.6101 0006589 116.5483 243.6432 15.26238838 70982
Epoch: 2026-06-24T03:37Z
TLE epoch observation values (Epoch: 2026-06-24T03:37:44.503Z)
Latitude
0.00002°
Longitude
101.86213°
Altitude
492.178 km
Speed
7.618 km/s
True Right ascension
04h 34m 26s
True Declination
0° 00' 00"
Sunlit
Object was in daylight at epoch
Visualization orbit readout
Latitude
Unknown
Longitude
Unknown
Altitude
Unknown
Speed
Unknown
Apparent Right ascension
Unknown
Apparent Declination
Unknown
Sunlit
N/A
Visualization observer readout
Local Sidereal Time
21:54:19
Azimuth
Unknown
Elevation
Unknown
Doppler factor
Unknown
Orbital elements
Apogee altitude
488.546 km
Perigee altitude
479.503 km
Semi-major axis
6,862.162 km
Eccentricity
0.00066
Inclination
97.3914°
RAAN
68.6101°
Arg. of periapsis
116.5483°
True anomaly
243.57557°
Mean anomaly
243.6432°
Eccentric anomaly
243.60938°
Mean motion
3.81814 °/min
Orbital period
94.29 mins
BSTAR
0.00027185
Loading maneuver chart data...
Computing Atmospheric mass density...
Loading historical data...
Loading historical data...
Loading historical data...
Loading historical data...
Loading historical data...
Loading historical data...
Loading historical data...

Documentation

Showing up to 5 results
|